Orbital Elements at Epoch 2459200.5 (2020-Dec-17.0) TDB
Reference: JPL 21 (heliocentric ecliptic J2000)
Element | Value | Uncertainty (1-sigma) | Units |
e | .1479813017168522 | 3.9964e-08 | |
a | 2.377695414266775 | 8.1405e-09 | au |
q | 2.025840951777387 | 9.69e-08 | au |
i | 4.18199753180507 | 3.8857e-06 | deg |
node | 319.869272076065 | 5.7774e-05 | deg |
peri | 78.49587947536608 | 5.9361e-05 | deg |
M | .1446340209625588 | 1.2678e-05 | deg |
tp | 2459199.961977155123 (2020-Dec-16.46197715) | 4.7162e-05 | TDB |
period | 1339.160889440325 3.67 | 6.8773e-06 1.883e-08 | d yr |
n | .2688250551809758 | 1.3806e-09 | deg/d |
Q | 2.729549876756162 | 9.3451e-09 | au |
|
| | Orbit Determination Parameters
Additional Information
|